| time (UTC) | temp C | wind direction | speed KPH | gust KPH | rain 1hr cm | rain 24hr cm | rain mn cm | humidity % | barometer mb |
| 20260504234532 | 22 | 174 | 8.0 | 19.3 | 0.00 | 0.00 | 0.00 | 60 | 1014.5 |
| 20260504233030 | 23 | 157 | 9.7 | 19.3 | 0.00 | 0.00 | 0.00 | 57 | 1014.8 |
| 20260504231529 | 23 | 143 | 9.7 | 19.3 | 0.00 | 0.00 | 0.00 | 57 | 1014.8 |
| 20260504230028 | 23 | 219 | 9.7 | 22.5 | 0.00 | 0.00 | 0.00 | 56 | 1014.9 |
| 20260504224534 | 24 | 136 | 11.3 | 19.3 | 0.00 | 0.00 | 0.00 | 54 | 1015.0 |
| 20260504223125 | 24 | 171 | 9.7 | 25.7 | 0.00 | 0.00 | 0.00 | 54 | 1015.2 |
| 20260504221524 | 24 | 128 | 9.7 | 19.3 | 0.00 | 0.00 | 0.00 | 53 | 1015.0 |
| 20260504220023 | 24 | 360 | 8.0 | 19.3 | 0.00 | 0.00 | 0.00 | 53 | 1015.4 |
| 20260504214526 | 24 | 178 | 11.3 | 22.5 | 0.00 | 0.00 | 0.00 | 53 | 1015.3 |
| 20260504213023 | 24 | 204 | 11.3 | 20.9 | 0.00 | 0.00 | 0.00 | 52 | 1015.3 |
| 20260504211521 | 25 | 173 | 6.4 | 22.5 | 0.00 | 0.00 | 0.00 | 49 | 1015.6 |
| 20260504210033 | 25 | 161 | 8.0 | 24.1 | 0.00 | 0.00 | 0.00 | 50 | 1015.4 |
| 20260504204529 | 25 | 163 | 8.0 | 19.3 | 0.00 | 0.00 | 0.00 | 48 | 1015.6 |
| 20260504203023 | 26 | 233 | 12.9 | 24.1 | 0.00 | 0.00 | 0.00 | 46 | 1015.8 |
| 20260504201513 | 25 | 239 | 11.3 | 24.1 | 0.00 | 0.00 | 0.00 | 48 | 1016.1 |
| 20260504200010 | 26 | 131 | 4.8 | 16.1 | 0.00 | 0.00 | 0.00 | 47 | 1016.4 |
| 20260504194509 | 26 | 139 | 8.0 | 24.1 | 0.00 | 0.00 | 0.00 | 44 | 1016.6 |
| 20260504193006 | 25 | 360 | 6.4 | 20.9 | 0.00 | 0.00 | 0.00 | 49 | 1016.7 |
| 20260504191506 | 26 | 213 | 6.4 | 22.5 | 0.00 | 0.00 | 0.00 | 49 | 1016.9 |
| 20260504190105 | 25 | 155 | 11.3 | 20.9 | 0.00 | 0.00 | 0.00 | 49 | 1017.1 |
| 20260504184502 | 26 | 182 | 9.7 | 16.1 | 0.00 | 0.00 | 0.00 | 48 | 1017.3 |
| 20260504183104 | 25 | 138 | 8.0 | 16.1 | 0.00 | 0.00 | 0.00 | 51 | 1017.5 |
| 20260504181557 | 25 | 19 | 1.6 | 8.0 | 0.00 | 0.00 | 0.00 | 61 | 1017.6 |
| 20260504180108 | 24 | 149 | 4.8 | 11.3 | 0.00 | 0.00 | 0.00 | 56 | 1017.7 |
| 20260504174552 | 23 | 63 | 6.4 | 12.9 | 0.00 | 0.00 | 0.00 | 63 | 1017.8 |
| 20260504173105 | 24 | 349 | 6.4 | 12.9 | 0.00 | 0.00 | 0.00 | 65 | 1017.8 |
| 20260504171554 | 23 | 17 | 3.2 | 9.7 | 0.00 | 0.00 | 0.00 | 66 | 1017.7 |
| 20260504081557 | 15 | 173 | 1.6 | 3.2 | 0.00 | 0.00 | 0.00 | 81 | 1017.7 |
| 20260504050025 | 18 | 182 | 3.2 | 8.0 | 0.00 | 0.00 | 0.00 | 71 | 1019.5 |
| 20260504044525 | 18 | 165 | 1.6 | 6.4 | 0.00 | 0.00 | 0.00 | 70 | 1019.6 |
| 20260504043023 | 18 | 173 | 1.6 | 8.0 | 0.00 | 0.00 | 0.00 | 70 | 1019.8 |
| 20260504041537 | 18 | 258 | 4.8 | 11.3 | 0.00 | 0.00 | 0.00 | 69 | 1019.8 |
| 20260504040024 | 18 | 165 | 3.2 | 11.3 | 0.00 | 0.00 | 0.00 | 68 | 1019.7 |
| 20260504034523 | 18 | 234 | 4.8 | 12.9 | 0.00 | 0.00 | 0.00 | 67 | 1019.7 |
| 20260504033022 | 19 | 150 | 3.2 | 8.0 | 0.00 | 0.00 | 0.00 | 67 | 1019.6 |
| 20260504031522 | 19 | 149 | 1.6 | 6.4 | 0.00 | 0.00 | 0.00 | 64 | 1019.6 |
| 20260504030022 | 20 | 218 | 1.6 | 4.8 | 0.00 | 0.00 | 0.00 | 62 | 1019.7 |
| 20260504024522 | 20 | 169 | 0.0 | 3.2 | 0.00 | 0.00 | 0.00 | 62 | 1019.5 |
| 20260504023020 | 20 | 168 | 0.0 | 3.2 | 0.00 | 0.00 | 0.00 | 61 | 1019.3 |
| 20260504021519 | 20 | 180 | 0.0 | 3.2 | 0.00 | 0.00 | 0.00 | 60 | 1019.3 |
| 20260504020031 | 21 | 159 | 0.0 | 3.2 | 0.00 | 0.00 | 0.00 | 59 | 1019.0 |
| 20260504014522 | 21 | 207 | 1.6 | 4.8 | 0.00 | 0.00 | 0.00 | 57 | 1018.9 |
| 20260504013018 | 21 | 213 | 0.0 | 1.6 | 0.00 | 0.00 | 0.00 | 58 | 1018.7 |
| 20260504011517 | 22 | 217 | 0.0 | 1.6 | 0.00 | 0.00 | 0.00 | 54 | 1018.7 |
| 20260504010017 | 22 | 213 | 1.6 | 3.2 | 0.00 | 0.00 | 0.00 | 54 | 1018.6 |
| 20260504004517 | 22 | 266 | 0.0 | 3.2 | 0.00 | 0.00 | 0.00 | 53 | 1018.5 |
| 20260504003015 | 23 | 294 | 1.6 | 3.2 | 0.00 | 0.00 | 0.00 | 51 | 1018.4 |
| 20260504001523 | 23 | 360 | 0.0 | 6.4 | 0.00 | 0.00 | 0.00 | 49 | 1018.5 |
| 20260504000015 | 23 | 360 | 1.6 | 11.3 | 0.00 | 0.00 | 0.00 | 48 | 1018.3 |